Regional Weather Roundup
Issued by NWS

Home | Current Version | Previous Version | Graphics & Text | Print | Product List | Glossary On
Versions: 1 2 3 4 5 6 7 8 9 10 11 12 13 14 15 16 17 18 19 20 21 22 23 24 25 26 27 28 29 30 31 32 33 34 35 36 37 38 39 40 41 42 43 44 45 46 47 48 49 50
000
ASUS43 KDMX 241706
RWRIA

WEATHER ROUNDUP FOR IOWA
NATIONAL WEATHER SERVICE DES MOINES IA
1200 PM CDT THU MAY 24 2018

NOTE: "FAIR" INDICATES FEW OR NO CLOUDS BELOW 12,000 FEET WITH NO
SIGNIFICANT WEATHER AND/OR OBSTRUCTIONS TO VISIBILITY.

* - THESE STATIONS ARE NOT NWS STATIONS...THUS NOT UNDER NWS
QUALITY CONTROL.  THEY ALSO DO NOT REPORT WEATHER SUCH
AS PRECIPITATION OR FOG.

IAZ001>003-012>014-020>022-031>034-043>046-241800-
   NORTHWEST IOWA

CITY           SKY/WX    TMP DP  RH WIND       PRES   REMARKS
CARROLL *      PTSUNNY   84  61  45 S18       30.03S HX  84
CHEROKEE *     PTSUNNY   81  69  66 S15       29.99F HX  84
DENISON *      PTSUNNY   81  66  61 S9        30.05S HX  83
LE MARS *      CLOUDY    82  64  54 S18G24    29.96S HX  84
ORANGE CITY *  MOSUNNY   84  64  51 S15G21    29.96F HX  86
SHELDON *      MOSUNNY   84  66  54 S22       29.95F HX  86
SIOUX CITY     MOSUNNY   82  67  60 S21       29.97F HX  84
SPENCER        PTSUNNY   83  67  58 SE17      29.99F HX  85
STORM LAKE *   MOSUNNY   81  66  61 S15G23    30.01F HX  83
$$

IAZ055>058-069>071-079>083-090>094-241800-
   SOUTHWEST IOWA

CITY           SKY/WX    TMP DP  RH WIND       PRES   REMARKS
ATLANTIC *     CLOUDY    82  66  57 S12G20    30.04S HX  85
AUDUBON *      CLOUDY    82  70  65 S13       30.06S HX  86
CLARINDA *     MOSUNNY   84  68  58 SW14      30.07F HX  87
COUNCIL BLFS * MOSUNNY   81  68  65 S9        30.04S HX  83
CRESTON *      MOSUNNY   82  66  57 S12G23    30.09S HX  85
HARLAN  *      PTSUNNY   81  64  57 S10G16    30.07F HX  82
LAMONI         SUNNY     81  66  60 S9        30.09F HX  83
RED OAK *      MOSUNNY   84  64  51 S13       30.04F HX  86
SHENANDOAH *   MOSUNNY   86  64  48 S16       30.03F HX  87
$$

IAZ047>049-059>061-072>074-084-241800-
   CENTRAL IOWA

CITY           SKY/WX    TMP DP  RH WIND       PRES   REMARKS
AMES           MOSUNNY   83  63  50 S15G24    30.06F HX  84
ANKENY *       SUNNY     84  64  51 S13G20    30.07F HX  86
BOONE *        PTSUNNY   86  64  48 S16       30.05F HX  87
CHARITON *     SUNNY     84  66  54 S17       30.09F HX  86
DES MOINES     PTSUNNY   84  64  50 S13       30.06F HX  85
GRINNELL*      SUNNY     83  65  53 S14       30.11S HX  85
KNOXVILLE *    SUNNY     84  64  51 S15G21    30.08F HX  86
MARSHALLTOWN   SUNNY     84  64  50 MISG      30.07F HX  85
NEWTON *       SUNNY     84  63  48 S17G24    30.08F HX  85
PELLA *        SUNNY     84  63  49 SW12      30.10F HX  85
PERRY *        FAIR      87  58  36 S18G24    30.05F HX  86
$$

IAZ004>006-015-016-023>025-035-036-241800-
   NORTH CENTRAL IOWA

CITY           SKY/WX    TMP DP  RH WIND       PRES   REMARKS
ALGONA *       CLOUDY    82  66  57 S13G22    30.03F HX  85
CLARION *      CLOUDY    81  64  57 S15G22    30.05S HX  82
ESTHERVILLE    CLOUDY    79  69  71 S17       29.99F HX  81
FORT DODGE *   CLOUDY    83  66  56 S13G21    30.04F HX  85
MASON CITY     PTSUNNY   82  68  62 S14G23    30.07S HX  85
FOREST CITY *  FAIR      81  66  61 S17       30.05F HX  83
WEBSTER CITY * CLOUDY    84  63  48 S15G23    30.03F HAZE    HX  85
IOWA FALLS *   FAIR      84  64  51 S16       30.08F HX  85
$$

IAZ007>011-017>019-026>030-037>042-050>054-066-241800-
   NORTHEAST IOWA

CITY           SKY/WX    TMP DP  RH WIND       PRES   REMARKS
CEDAR RAPIDS   FAIR      83  65  54 S8        30.10F HX  85
CHARLES CITY * FAIR      84  64  51 S22G29    30.08  HX  86
CLINTON *        N/A     84  65  52 S10       30.13F HX  86
DECORAH *      FAIR      81  66  61 S10G18    30.09F HX  83
DUBUQUE        FAIR      81  64  56 S12       30.13F HX  82
MONTICELLO *   FAIR      84  64  51 S8G16     30.10F HX  86
OELWEIN *      FAIR      84  66  54 SW16G23   30.10F HX  86
WATERLOO       FAIR      83  66  56 S14G22    30.07F HX  85
$$

IAZ064-065-067-068-078-241800-
   EAST CENTRAL IOWA

CITY           SKY/WX    TMP DP  RH WIND       PRES   REMARKS
DAVENPORT      FAIR      83  61  47 S8        30.14F HX  83
IOWA CITY      FAIR      84  65  52 S9        30.11F HX  86
MT. PLEASANT * SUNNY     86  63  45 S10       30.11F HX  87
MUSCATINE *    FAIR      84  66  54 S8        30.11F HX  86
QUAD CITIES    FAIR      86  63  45 S6        30.11F HX  87
$$

IAZ062-063-075>077-085>089-095>099-241800-
   SOUTHEAST IOWA

CITY           SKY/WX    TMP DP  RH WIND       PRES   REMARKS
BURLINGTON     CLOUDY    84  65  52 S8        30.12F HX  86
FAIRFIELD *    MOSUNNY   84  66  54 S8        30.10F HX  86
FORT MADISON * MOSUNNY   84  66  54 SW6       30.13S HX  86
KEOKUK *       MOSUNNY   84  66  54 SW9       30.11F HX  86
OSKALOOSA *    FAIR      84  65  51 S9G20     30.11S HX  86
CENTERVILLE *    N/A     84  66  54 SE12      30.12  HX  86
OTTUMWA        MOSUNNY   84  67  56 S10       30.10S HX  86
WASHINGTON *   CLOUDY    84  66  54 S14       30.12F HX  86
$$

ABBREVIATIONS USED IN REMARKS
   TC - TEMPERATURES IN CELSIUS
  WCI - WIND CHILL INDEX
   HX - HEAT INDEX
  VSB - VISIBILITY
$$





USA.gov is the U.S. government's official web portal to all federal, state and local government web resources and services.